Data No, UTC Date,UTC Time,Latitude,Longitude,Course(deg),Temp(degC),Sal(psu)
745,2021/1/6,12:24,35-35.86N,139-47.30E,203,12.132,30.5383
746,2021/1/6,12:25,35-35.73N,139-47.25E,194,12.061,30.4837
747,2021/1/6,12:26,35-35.58N,139-47.22E,185,11.713,30.3869
748,2021/1/6,12:27,35-35.41N,139-47.27E,161,11.454,30.2812
749,2021/1/6,12:28,35-35.25N,139-47.41E,141,11.682,30.064
750,2021/1/6,12:29,35-35.09N,139-47.58E,138,11.94,29.8233
751,2021/1/6,12:30,35-34.92N,139-47.76E,138,11.991,30.1096
752,2021/1/6,12:31,35-34.79N,139-47.93E,130,12.041,30.2978
753,2021/1/6,12:32,35-34.63N,139-48.16E,129,12.199,30.3429
754,2021/1/6,12:33,35-34.48N,139-48.40E,128,12.153,30.4666
755,2021/1/6,12:34,35-34.32N,139-48.65E,128,12.034,30.5589
756,2021/1/6,12:35,35-34.15N,139-48.90E,128,11.828,30.5966
757,2021/1/6,12:36,35-33.99N,139-49.14E,128,11.705,30.562
758,2021/1/6,12:37,35-33.83N,139-49.40E,129,11.619,30.4392
759,2021/1/6,12:38,35-33.66N,139-49.64E,130,11.598,30.3839
760,2021/1/6,12:39,35-33.48N,139-49.90E,129,11.59,30.3794
761,2021/1/6,12:40,35-33.30N,139-50.17E,129,11.597,30.3803
762,2021/1/6,12:41,35-33.12N,139-50.44E,130,11.609,30.4029
763,2021/1/6,12:42,35-32.89N,139-50.68E,146,11.49,30.7501
764,2021/1/6,12:43,35-32.62N,139-50.82E,160,11.623,30.9355
765,2021/1/6,12:44,35-32.32N,139-50.92E,166,11.853,31.1976
766,2021/1/6,12:45,35-32.03N,139-50.98E,172,12.101,31.6118
767,2021/1/6,12:46,35-31.71N,139-51.04E,171,12.239,31.9201
768,2021/1/6,12:47,35-31.37N,139-51.10E,171,12.134,32.0794
769,2021/1/6,12:48,35-31.09N,139-51.14E,173,11.985,32.1519
770,2021/1/6,12:49,35-30.79N,139-51.09E,197,11.855,32.1444
771,2021/1/6,12:50,35-30.51N,139-50.94E,203,11.867,32.1512
772,2021/1/6,12:51,35-30.22N,139-50.78E,204,11.862,32.165
773,2021/1/6,12:52,35-29.94N,139-50.62E,204,11.883,32.1817
774,2021/1/6,12:53,35-29.65N,139-50.46E,204,11.906,32.1855
775,2021/1/6,12:54,35-29.37N,139-50.30E,205,11.921,32.2067
776,2021/1/6,12:55,35-29.12N,139-50.07E,226,12.036,32.2012
777,2021/1/6,12:56,35-28.89N,139-49.73E,230,12.416,32.2016
778,2021/1/6,12:57,35-28.70N,139-49.45E,229,12.425,32.2138
779,2021/1/6,12:58,35-28.49N,139-49.15E,229,12.403,32.1878
780,2021/1/6,12:59,35-28.29N,139-48.86E,230,12.364,32.1381
781,2021/1/6,13:00,35-28.09N,139-48.56E,230,12.323,32.0723
782,2021/1/6,13:01,35-27.91N,139-48.30E,231,12.303,32.0211
783,2021/1/6,13:02,35-27.72N,139-48.00E,231,12.306,31.9952
784,2021/1/6,13:03,35-27.51N,139-47.69E,231,12.337,32.0174
785,2021/1/6,13:04,35-27.32N,139-47.39E,231,12.341,32.0986
786,2021/1/6,13:05,35-27.11N,139-47.08E,231,12.38,32.1485
787,2021/1/6,13:06,35-26.92N,139-46.77E,232,12.403,32.2444
788,2021/1/6,13:07,35-26.72N,139-46.48E,231,12.338,32.3319
789,2021/1/6,13:08,35-26.51N,139-46.18E,231,12.452,32.4142
790,2021/1/6,13:09,35-26.32N,139-45.88E,231,12.652,32.4508
791,2021/1/6,13:10,35-26.12N,139-45.56E,232,12.773,32.5366
792,2021/1/6,13:11,35-25.93N,139-45.26E,231,12.801,32.5923
793,2021/1/6,13:12,35-25.73N,139-44.95E,232,12.791,32.6253
794,2021/1/6,13:13,35-25.54N,139-44.65E,232,12.841,32.6462
795,2021/1/6,13:14,35-25.34N,139-44.33E,231,12.877,32.6519
796,2021/1/6,13:15,35-25.15N,139-44.04E,231,12.86,32.6827
797,2021/1/6,13:16,35-24.95N,139-43.73E,231,12.736,32.6917
798,2021/1/6,13:17,35-24.75N,139-43.43E,231,12.651,32.6854
799,2021/1/6,13:18,35-24.50N,139-43.21E,207,12.586,32.6277
800,2021/1/6,13:19,35-24.23N,139-43.05E,205,12.576,32.569
801,2021/1/6,13:20,35-23.94N,139-42.88E,206,12.537,32.4896
802,2021/1/6,13:21,35-23.66N,139-42.72E,205,12.51,32.4521
803,2021/1/6,13:22,35-23.37N,139-42.55E,205,12.524,32.418
804,2021/1/6,13:23,35-23.08N,139-42.37E,206,12.723,32.4098
805,2021/1/6,13:24,35-22.79N,139-42.24E,193,12.812,32.4853
806,2021/1/6,13:25,35-22.48N,139-42.24E,178,12.793,32.6309
807,2021/1/6,13:26,35-22.17N,139-42.25E,178,12.86,32.6765
808,2021/1/6,13:27,35-21.85N,139-42.26E,179,12.906,32.6984
809,2021/1/6,13:28,35-21.54N,139-42.27E,179,12.755,32.7182
810,2021/1/6,13:29,35-21.22N,139-42.28E,179,12.822,32.7105
811,2021/1/6,13:30,35-20.90N,139-42.29E,179,12.927,32.6876
812,2021/1/6,13:31,35-20.58N,139-42.30E,178,13.005,32.7039
813,2021/1/6,13:32,35-20.29N,139-42.31E,179,13.117,32.7338
814,2021/1/6,13:33,35-20.04N,139-42.33E,172,13.215,32.7808
815,2021/1/6,13:34,35-19.84N,139-42.44E,150,13.347,32.8154
816,2021/1/6,13:35,35-19.66N,139-42.57E,148,13.398,32.8763
817,2021/1/6,13:36,35-19.48N,139-42.72E,147,13.475,32.9309
818,2021/1/6,13:37,35-19.30N,139-42.86E,146,13.543,32.9657
819,2021/1/6,13:38,35-19.13N,139-43.01E,144,13.571,32.9946
820,2021/1/6,13:39,35-18.95N,139-43.17E,145,13.581,33.0301
821,2021/1/6,13:40,35-18.77N,139-43.31E,145,13.58,33.0452
822,2021/1/6,13:41,35-18.59N,139-43.47E,145,13.584,33.0562
823,2021/1/6,13:42,35-18.42N,139-43.62E,145,13.58,33.0661
824,2021/1/6,13:43,35-18.23N,139-43.77E,145,13.583,33.0664
825,2021/1/6,13:44,35-18.05N,139-43.92E,146,13.595,33.0683
826,2021/1/6,13:45,35-17.87N,139-44.07E,145,13.627,33.0742
827,2021/1/6,13:46,35-17.69N,139-44.22E,145,13.538,33.0862
828,2021/1/6,13:47,35-17.51N,139-44.38E,145,13.508,33.1025
829,2021/1/6,13:48,35-17.33N,139-44.54E,145,13.512,33.0741
830,2021/1/6,13:49,35-17.15N,139-44.68E,146,13.922,33.0641
831,2021/1/6,13:50,35-16.97N,139-44.84E,145,13.971,33.1034
832,2021/1/6,13:51,35-16.78N,139-44.99E,146,14.299,33.2349
833,2021/1/6,13:52,35-16.60N,139-45.14E,145,14.713,33.2702
834,2021/1/6,13:53,35-16.42N,139-45.29E,146,14.679,33.4011
835,2021/1/6,13:54,35-16.24N,139-45.43E,146,14.79,33.4492
836,2021/1/6,13:55,35-16.06N,139-45.59E,146,14.644,33.4827
837,2021/1/6,13:56,35-15.88N,139-45.73E,145,14.615,33.4874
838,2021/1/6,13:57,35-15.70N,139-45.89E,145,14.837,33.4639
839,2021/1/6,13:58,35-15.53N,139-46.04E,145,15.127,33.4669
840,2021/1/6,13:59,35-15.33N,139-46.17E,157,15.434,33.538
841,2021/1/6,14:00,35-15.11N,139-46.20E,176,15.7,33.6107
842,2021/1/6,14:01,35-14.89N,139-46.21E,177,15.969,33.697
843,2021/1/6,14:02,35-14.68N,139-46.22E,178,16.252,33.763
844,2021/1/6,14:03,35-14.46N,139-46.23E,178,16.608,33.8566
845,2021/1/6,14:04,35-14.24N,139-46.24E,178,16.856,33.9365
846,2021/1/6,14:05,35-14.02N,139-46.25E,178,16.94,34.0661
847,2021/1/6,14:06,35-13.81N,139-46.25E,178,16.963,34.1067
848,2021/1/6,14:07,35-13.59N,139-46.26E,178,16.893,34.1541
849,2021/1/6,14:08,35-13.36N,139-46.27E,178,16.891,34.1542
850,2021/1/6,14:09,35-13.15N,139-46.27E,178,16.937,34.148
851,2021/1/6,14:10,35-12.93N,139-46.27E,180,17.008,34.1572
852,2021/1/6,14:11,35-12.70N,139-46.23E,192,17.051,34.1787
853,2021/1/6,14:12,35-12.46N,139-46.15E,194,17.084,34.1938
854,2021/1/6,14:13,35-12.19N,139-46.07E,193,17.038,34.2147
855,2021/1/6,14:14,35-11.91N,139-45.99E,195,17.175,34.2182
856,2021/1/6,14:15,35-11.62N,139-45.88E,196,17.255,34.2191
857,2021/1/6,14:16,35-11.31N,139-45.78E,196,17.285,34.2387
858,2021/1/6,14:17,35-11.01N,139-45.66E,197,17.291,34.2522
859,2021/1/6,14:18,35-10.71N,139-45.55E,197,17.275,34.2572
860,2021/1/6,14:19,35-10.40N,139-45.43E,197,17.309,34.2595
861,2021/1/6,14:20,35-10.09N,139-45.31E,197,17.278,34.2521
862,2021/1/6,14:21,35-09.78N,139-45.19E,197,17.374,34.2502
863,2021/1/6,14:22,35-09.48N,139-45.07E,197,17.457,34.2479
864,2021/1/6,14:23,35-09.17N,139-44.95E,197,17.457,34.2758
865,2021/1/6,14:24,35-08.86N,139-44.84E,196,17.439,34.2896
866,2021/1/6,14:25,35-08.55N,139-44.72E,196,17.456,34.2928
867,2021/1/6,14:26,35-08.24N,139-44.61E,196,17.593,34.3034
868,2021/1/6,14:27,35-07.93N,139-44.49E,197,17.636,34.3093
869,2021/1/6,14:28,35-07.63N,139-44.38E,197,17.624,34.3388
870,2021/1/6,14:29,35-07.32N,139-44.26E,197,17.65,34.3461
871,2021/1/6,14:30,35-07.01N,139-44.15E,196,17.651,34.3512
872,2021/1/6,14:31,35-06.71N,139-44.04E,196,17.634,34.3565
873,2021/1/6,14:32,35-06.40N,139-43.92E,197,17.609,34.3587
874,2021/1/6,14:33,35-06.10N,139-43.84E,189,17.613,34.3456
875,2021/1/6,14:34,35-05.77N,139-43.78E,188,17.62,34.3481
876,2021/1/6,14:35,35-05.47N,139-43.72E,189,17.617,34.3432
877,2021/1/6,14:36,35-05.15N,139-43.66E,189,17.611,34.3422
878,2021/1/6,14:37,35-04.83N,139-43.59E,189,17.606,34.3431
879,2021/1/6,14:38,35-04.52N,139-43.53E,189,17.625,34.3445
880,2021/1/6,14:39,35-04.19N,139-43.46E,189,17.685,34.3481
881,2021/1/6,14:40,35-03.88N,139-43.40E,188,17.62,34.3593
882,2021/1/6,14:41,35-03.57N,139-43.38E,183,17.999,34.3773
883,2021/1/6,14:42,35-03.26N,139-43.33E,190,18.17,34.3779
884,2021/1/6,14:43,35-02.95N,139-43.24E,192,18.251,34.3855
885,2021/1/6,14:44,35-02.65N,139-43.16E,192,18.338,34.3999
886,2021/1/6,14:45,35-02.33N,139-43.08E,191,18.437,34.4102
887,2021/1/6,14:46,35-02.03N,139-43.01E,191,18.49,34.4108
888,2021/1/6,14:47,35-01.72N,139-42.96E,185,18.572,34.4178
889,2021/1/6,14:48,35-01.41N,139-42.93E,183,18.614,34.4184
890,2021/1/6,14:49,35-01.08N,139-42.90E,184,18.704,34.4269
891,2021/1/6,14:50,35-00.77N,139-42.87E,185,18.741,34.4365
892,2021/1/6,14:51,35-00.45N,139-42.85E,180,18.72,34.427
893,2021/1/6,14:52,35-00.13N,139-42.85E,180,18.713,34.4246
894,2021/1/6,14:53,34-59.80N,139-42.86E,177,18.784,34.4294
895,2021/1/6,14:54,34-59.48N,139-42.87E,179,18.809,34.4166
896,2021/1/6,14:55,34-59.15N,139-42.87E,180,18.775,34.4199
897,2021/1/6,14:56,34-58.83N,139-42.86E,180,18.714,34.423
898,2021/1/6,14:57,34-58.50N,139-42.86E,180,18.681,34.4207
899,2021/1/6,14:58,34-58.18N,139-42.91E,166,18.661,34.4281
900,2021/1/6,14:59,34-57.88N,139-43.07E,155,18.573,34.4188
901,2021/1/6,15:00,34-57.58N,139-43.23E,155,18.575,34.4143
902,2021/1/6,15:01,34-57.27N,139-43.41E,154,18.554,34.4134
903,2021/1/6,15:02,34-56.97N,139-43.58E,155,18.552,34.4087
904,2021/1/6,15:03,34-56.66N,139-43.77E,152,18.533,34.4081
905,2021/1/6,15:04,34-56.38N,139-44.00E,142,18.537,34.4068
906,2021/1/6,15:05,34-56.10N,139-44.26E,142,18.539,34.4064
907,2021/1/6,15:06,34-55.80N,139-44.54E,143,18.574,34.412
908,2021/1/6,15:07,34-55.51N,139-44.81E,143,18.637,34.4067
909,2021/1/6,15:08,34-55.23N,139-45.06E,143,18.666,34.4066
910,2021/1/6,15:09,34-54.94N,139-45.31E,144,18.663,34.4087
911,2021/1/6,15:10,34-54.65N,139-45.56E,144,18.687,34.4163
912,2021/1/6,15:11,34-54.37N,139-45.81E,144,18.745,34.4148
913,2021/1/6,15:12,34-54.08N,139-46.06E,145,18.722,34.4141
914,2021/1/6,15:13,34-53.78N,139-46.31E,144,18.692,34.4252
915,2021/1/6,15:14,34-53.50N,139-46.55E,145,18.631,34.4192
916,2021/1/6,15:15,34-53.20N,139-46.79E,146,18.647,34.4278
917,2021/1/6,15:16,34-52.95N,139-47.07E,133,18.614,34.4284
918,2021/1/6,15:17,34-52.74N,139-47.40E,128,18.471,34.4238
919,2021/1/6,15:18,34-52.54N,139-47.75E,123,18.409,34.4292
920,2021/1/6,15:19,34-52.39N,139-48.06E,121,18.214,34.424
921,2021/1/6,15:20,34-52.20N,139-48.41E,121,17.931,34.4179
922,2021/1/6,15:21,34-52.04N,139-48.76E,120,17.698,34.4182
923,2021/1/6,15:22,34-51.84N,139-49.16E,121,17.712,34.3909
924,2021/1/6,15:23,34-51.67N,139-49.49E,123,17.985,34.3799
925,2021/1/6,15:24,34-51.51N,139-49.82E,118,17.828,34.3889
926,2021/1/6,15:25,34-51.37N,139-50.17E,115,17.719,34.4008
927,2021/1/6,15:26,34-51.24N,139-50.53E,113,17.888,34.3819
928,2021/1/6,15:27,34-51.15N,139-50.88E,108,17.7,34.3759
929,2021/1/6,15:28,34-51.05N,139-51.25E,109,17.579,34.3776
930,2021/1/6,15:29,34-50.95N,139-51.60E,110,17.577,34.3714
931,2021/1/6,15:30,34-50.86N,139-51.97E,105,17.567,34.3554
932,2021/1/6,15:31,34-50.79N,139-52.33E,105,17.58,34.3599
933,2021/1/6,15:32,34-50.71N,139-52.69E,105,17.576,34.3596
934,2021/1/6,15:33,34-50.66N,139-53.01E,99,17.642,34.3563
935,2021/1/6,15:34,34-50.62N,139-53.36E,97,17.68,34.3571
936,2021/1/6,15:35,34-50.66N,139-53.71E,70,17.685,34.3654
937,2021/1/6,15:36,34-50.80N,139-54.03E,61,17.796,34.3574
938,2021/1/6,15:37,34-50.95N,139-54.35E,60,17.925,34.3639
939,2021/1/6,15:38,34-51.10N,139-54.67E,61,17.863,34.3727
940,2021/1/6,15:39,34-51.24N,139-54.99E,61,17.598,34.3843
941,2021/1/6,15:40,34-51.39N,139-55.32E,61,17.365,34.3905
942,2021/1/6,15:41,34-51.52N,139-55.63E,62,17.157,34.3923
943,2021/1/6,15:42,34-51.65N,139-55.95E,64,17.184,34.378
944,2021/1/6,15:43,34-51.78N,139-56.26E,64,17.15,34.3819
945,2021/1/6,15:44,34-51.90N,139-56.58E,63,17.098,34.3731
946,2021/1/6,15:45,34-52.03N,139-56.89E,64,17.092,34.3698
947,2021/1/6,15:46,34-52.16N,139-57.20E,64,17.104,34.3688
948,2021/1/6,15:47,34-52.28N,139-57.51E,64,17.119,34.3594
949,2021/1/6,15:48,34-52.41N,139-57.83E,64,17.13,34.3601
950,2021/1/6,15:49,34-52.53N,139-58.14E,64,17.125,34.3558
951,2021/1/6,15:50,34-52.66N,139-58.45E,62,17.102,34.3564
952,2021/1/6,15:51,34-52.79N,139-58.75E,61,17.089,34.3564
953,2021/1/6,15:52,34-52.93N,139-59.05E,61,17.11,34.3563
954,2021/1/6,15:53,34-53.07N,139-59.36E,61,17.147,34.3544
955,2021/1/6,15:54,34-53.21N,139-59.66E,61,17.184,34.3478
956,2021/1/6,15:55,34-53.34N,139-59.98E,62,17.22,34.3531
957,2021/1/6,15:56,34-53.48N,140-00.29E,61,17.26,34.3578
958,2021/1/6,15:57,34-53.62N,140-00.60E,61,17.314,34.357
959,2021/1/6,15:58,34-53.76N,140-00.92E,62,17.336,34.3523
960,2021/1/6,15:59,34-53.90N,140-01.22E,61,17.389,34.3608
961,2021/1/6,16:00,34-54.04N,140-01.54E,61,17.431,34.3602
962,2021/1/6,16:01,34-54.19N,140-01.85E,61,17.417,34.3726
963,2021/1/6,16:02,34-54.33N,140-02.18E,61,17.405,34.3631
964,2021/1/6,16:03,34-54.48N,140-02.53E,61,17.41,34.3626
965,2021/1/6,16:04,34-54.62N,140-02.84E,61,17.427,34.3591
966,2021/1/6,16:05,34-54.75N,140-03.13E,61,17.422,34.363
967,2021/1/6,16:06,34-54.89N,140-03.44E,60,17.408,34.3642
968,2021/1/6,16:07,34-55.04N,140-03.74E,60,17.384,34.3598
969,2021/1/6,16:08,34-55.18N,140-04.05E,60,17.408,34.3661
970,2021/1/6,16:09,34-55.33N,140-04.36E,60,17.439,34.3673
971,2021/1/6,16:10,34-55.45N,140-04.61E,60,17.45,34.3663
972,2021/1/6,16:11,34-55.58N,140-04.91E,60,17.449,34.3742
973,2021/1/6,16:12,34-55.73N,140-05.21E,60,17.457,34.3664
974,2021/1/6,16:13,34-55.87N,140-05.51E,60,17.45,34.3658
975,2021/1/6,16:14,34-56.01N,140-05.81E,59,17.418,34.3764
976,2021/1/6,16:15,34-56.16N,140-06.11E,59,17.362,34.3732
977,2021/1/6,16:16,34-56.31N,140-06.42E,59,17.339,34.3695
978,2021/1/6,16:17,34-56.47N,140-06.72E,56,17.396,34.3614
979,2021/1/6,16:18,34-56.62N,140-07.02E,57,17.527,34.3659
980,2021/1/6,16:19,34-56.79N,140-07.33E,57,17.595,34.3619
981,2021/1/6,16:20,34-56.95N,140-07.64E,57,17.632,34.3654
982,2021/1/6,16:21,34-57.12N,140-07.95E,55,17.824,34.3686
983,2021/1/6,16:22,34-57.32N,140-08.29E,55,18.155,34.3679
984,2021/1/6,16:23,34-57.48N,140-08.58E,56,18.369,34.3759
985,2021/1/6,16:24,34-57.65N,140-08.87E,55,18.617,34.3896
986,2021/1/6,16:25,34-57.83N,140-09.20E,55,18.863,34.3999
987,2021/1/6,16:26,34-58.01N,140-09.52E,55,19.061,34.3995
988,2021/1/6,16:27,34-58.20N,140-09.84E,55,19.204,34.4114
989,2021/1/6,16:28,34-58.39N,140-10.16E,54,19.286,34.4276
990,2021/1/6,16:29,34-58.58N,140-10.49E,55,19.32,34.4185
991,2021/1/6,16:30,34-58.76N,140-10.81E,55,19.382,34.4198
992,2021/1/6,16:31,34-58.95N,140-11.15E,55,19.414,34.4245
993,2021/1/6,16:32,34-59.14N,140-11.47E,55,19.439,34.426
994,2021/1/6,16:33,34-59.33N,140-11.80E,54,19.452,34.4251
995,2021/1/6,16:34,34-59.51N,140-12.12E,55,19.514,34.4327
996,2021/1/6,16:35,34-59.70N,140-12.45E,55,19.562,34.4234
997,2021/1/6,16:36,34-59.88N,140-12.78E,55,19.588,34.4317
998,2021/1/6,16:37,35-00.07N,140-13.11E,55,19.63,34.4342
999,2021/1/6,16:38,35-00.25N,140-13.44E,56,19.647,34.4342
1000,2021/1/6,16:39,35-00.43N,140-13.76E,56,19.668,34.4373
1001,2021/1/6,16:40,35-00.61N,140-14.08E,56,19.688,34.4425
1002,2021/1/6,16:41,35-00.79N,140-14.40E,56,19.694,34.4365
1003,2021/1/6,16:42,35-00.96N,140-14.73E,56,19.703,34.4454
1004,2021/1/6,16:43,35-01.14N,140-15.06E,56,19.71,34.438
1005,2021/1/6,16:44,35-01.31N,140-15.38E,57,19.715,34.4453
1006,2021/1/6,16:45,35-01.49N,140-15.72E,57,19.708,34.444
1007,2021/1/6,16:46,35-01.67N,140-16.06E,57,19.712,34.4446
1008,2021/1/6,16:47,35-01.85N,140-16.41E,57,19.695,34.4462
1009,2021/1/6,16:48,35-02.04N,140-16.76E,57,19.683,34.4415
1010,2021/1/6,16:49,35-02.22N,140-17.12E,58,19.673,34.4343
1011,2021/1/6,16:50,35-02.39N,140-17.46E,58,19.656,34.4386
1012,2021/1/6,16:51,35-02.58N,140-17.82E,58,19.64,34.4394
1013,2021/1/6,16:52,35-02.75N,140-18.17E,58,19.629,34.45
1014,2021/1/6,16:53,35-02.92N,140-18.51E,58,19.592,34.4345
1015,2021/1/6,16:54,35-03.09N,140-18.85E,59,19.571,34.4404
1016,2021/1/6,16:55,35-03.26N,140-19.19E,59,19.557,34.4439
1017,2021/1/6,16:56,35-03.43N,140-19.53E,58,19.55,34.4368
1018,2021/1/6,16:57,35-03.60N,140-19.89E,59,19.55,34.4336
1019,2021/1/6,16:58,35-03.77N,140-20.23E,59,19.537,34.434
1020,2021/1/6,16:59,35-03.94N,140-20.59E,60,19.524,34.4424
1021,2021/1/6,17:00,35-04.10N,140-20.94E,60,19.515,34.4334
1022,2021/1/6,17:01,35-04.28N,140-21.29E,55,19.506,34.4413
1023,2021/1/6,17:02,35-04.48N,140-21.63E,55,19.488,34.4492
1024,2021/1/6,17:03,35-04.68N,140-21.97E,55,19.474,34.4446
1025,2021/1/6,17:04,35-04.87N,140-22.33E,56,19.459,34.4461
1026,2021/1/6,17:05,35-05.06N,140-22.67E,56,19.439,34.4382
1027,2021/1/6,17:06,35-05.25N,140-23.01E,56,19.43,34.4461
1028,2021/1/6,17:07,35-05.44N,140-23.35E,55,19.414,34.445
1029,2021/1/6,17:08,35-05.62N,140-23.67E,56,19.413,34.4411
1030,2021/1/6,17:09,35-05.81N,140-24.01E,56,19.411,34.4421
1031,2021/1/6,17:10,35-05.99N,140-24.35E,56,19.402,34.4379
1032,2021/1/6,17:11,35-06.18N,140-24.69E,56,19.391,34.4416
1033,2021/1/6,17:12,35-06.36N,140-25.02E,56,19.383,34.4426
1034,2021/1/6,17:13,35-06.55N,140-25.37E,56,19.37,34.4387
1035,2021/1/6,17:14,35-06.73N,140-25.72E,56,19.333,34.4412
1036,2021/1/6,17:15,35-06.92N,140-26.07E,56,19.304,34.4474
1037,2021/1/6,17:16,35-07.11N,140-26.42E,56,19.277,34.4381
1038,2021/1/6,17:17,35-07.31N,140-26.78E,57,19.257,34.4423
1039,2021/1/6,17:18,35-07.50N,140-27.13E,56,19.214,34.4453
1040,2021/1/6,17:19,35-07.69N,140-27.49E,56,19.101,34.4468
1041,2021/1/6,17:20,35-07.88N,140-27.84E,56,18.855,34.4538
1042,2021/1/6,17:21,35-08.07N,140-28.18E,55,18.507,34.4547
1043,2021/1/6,17:22,35-08.27N,140-28.53E,56,18.328,34.444
1044,2021/1/6,17:23,35-08.48N,140-28.86E,51,18.192,34.4299
1045,2021/1/6,17:24,35-08.69N,140-29.18E,50,18.137,34.4174
1046,2021/1/6,17:25,35-08.90N,140-29.48E,50,18.143,34.4104
1047,2021/1/6,17:26,35-09.10N,140-29.80E,51,18.156,34.4026
1048,2021/1/6,17:27,35-09.30N,140-30.10E,51,18.206,34.4027
1049,2021/1/6,17:28,35-09.50N,140-30.40E,51,18.261,34.408
1050,2021/1/6,17:29,35-09.72N,140-30.69E,43,18.337,34.406
1051,2021/1/6,17:30,35-09.94N,140-30.93E,38,18.381,34.4067
1052,2021/1/6,17:31,35-10.19N,140-31.16E,36,18.395,34.4087
1053,2021/1/6,17:32,35-10.44N,140-31.38E,36,18.391,34.4141
1054,2021/1/6,17:33,35-10.68N,140-31.60E,36,18.413,34.4186
1055,2021/1/6,17:34,35-10.93N,140-31.82E,36,18.43,34.4192
1056,2021/1/6,17:35,35-11.15N,140-32.04E,38,18.395,34.4172
1057,2021/1/6,17:36,35-11.39N,140-32.27E,39,18.315,34.4307
1058,2021/1/6,17:37,35-11.62N,140-32.51E,39,18.149,34.4221
1059,2021/1/6,17:38,35-11.87N,140-32.77E,40,18.021,34.4269
1060,2021/1/6,17:39,35-12.14N,140-33.04E,40,18.018,34.4168
1061,2021/1/6,17:40,35-12.35N,140-33.25E,40,17.962,34.4118
1062,2021/1/6,17:41,35-12.60N,140-33.51E,39,17.851,34.4134
1063,2021/1/6,17:42,35-12.83N,140-33.75E,39,17.723,34.4117
1064,2021/1/6,17:43,35-13.11N,140-34.03E,37,17.129,34.4136
1065,2021/1/6,17:44,35-13.37N,140-34.27E,38,16.495,34.4018
1066,2021/1/6,17:45,35-13.60N,140-34.49E,38,16.408,34.3864
1067,2021/1/6,17:46,35-13.84N,140-34.72E,38,16.569,34.3797
1068,2021/1/6,17:47,35-14.08N,140-34.95E,38,16.638,34.3734
1069,2021/1/6,17:48,35-14.33N,140-35.18E,38,16.552,34.3687
1070,2021/1/6,17:49,35-14.57N,140-35.40E,36,16.54,34.377
1071,2021/1/6,17:50,35-14.81N,140-35.61E,36,16.716,34.3811
1072,2021/1/6,17:51,35-15.05N,140-35.83E,37,16.729,34.3834
1073,2021/1/6,17:52,35-15.28N,140-36.05E,37,16.717,34.3804
1074,2021/1/6,17:53,35-15.52N,140-36.27E,37,16.622,34.3814
1075,2021/1/6,17:54,35-15.76N,140-36.49E,37,16.556,34.3791
1076,2021/1/6,17:55,35-15.99N,140-36.71E,37,16.506,34.3773
1077,2021/1/6,17:56,35-16.23N,140-36.93E,37,16.445,34.3723
1078,2021/1/6,17:57,35-16.47N,140-37.15E,36,16.51,34.3711
1079,2021/1/6,17:58,35-16.71N,140-37.36E,37,16.585,34.3689
1080,2021/1/6,17:59,35-16.95N,140-37.59E,37,16.667,34.3722
1081,2021/1/6,18:00,35-17.20N,140-37.81E,36,16.687,34.3692
1082,2021/1/6,18:01,35-17.45N,140-38.04E,37,16.728,34.3799
1083,2021/1/6,18:02,35-17.68N,140-38.25E,36,16.777,34.3753
1084,2021/1/6,18:03,35-17.89N,140-38.45E,37,16.84,34.3746
1085,2021/1/6,18:04,35-18.13N,140-38.67E,37,16.86,34.3824
1086,2021/1/6,18:05,35-18.41N,140-38.94E,38,16.875,34.3889
1087,2021/1/6,18:06,35-18.66N,140-39.18E,38,16.849,34.384
1088,2021/1/6,18:07,35-18.89N,140-39.41E,39,16.752,34.3768
1089,2021/1/6,18:08,35-19.10N,140-39.62E,38,16.727,34.3827
1090,2021/1/6,18:09,35-19.33N,140-39.85E,38,16.717,34.3766
1091,2021/1/6,18:10,35-19.57N,140-40.09E,39,16.732,34.3779
1092,2021/1/6,18:11,35-19.84N,140-40.35E,39,16.753,34.3757
1093,2021/1/6,18:12,35-20.04N,140-40.56E,38,16.774,34.3821
1094,2021/1/6,18:13,35-20.29N,140-40.81E,39,16.863,34.3809
1095,2021/1/6,18:14,35-20.55N,140-41.07E,39,16.906,34.3755
1096,2021/1/6,18:15,35-20.78N,140-41.30E,39,16.931,34.3839
1097,2021/1/6,18:16,35-21.02N,140-41.54E,40,16.944,34.3795
1098,2021/1/6,18:17,35-21.23N,140-41.76E,39,16.942,34.3777
1099,2021/1/6,18:18,35-21.47N,140-41.99E,39,16.953,34.3803
1100,2021/1/6,18:19,35-21.74N,140-42.27E,39,16.962,34.3804
1101,2021/1/6,18:20,35-21.95N,140-42.49E,40,16.964,34.3772
1102,2021/1/6,18:21,35-22.19N,140-42.74E,40,16.925,34.3747
1103,2021/1/6,18:22,35-22.43N,140-42.99E,40,16.827,34.3825
1104,2021/1/6,18:23,35-22.67N,140-43.23E,39,16.818,34.3811
1105,2021/1/6,18:24,35-22.91N,140-43.48E,40,16.834,34.3821
1106,2021/1/6,18:25,35-23.15N,140-43.72E,40,16.873,34.3876
1107,2021/1/6,18:26,35-23.38N,140-43.97E,39,16.87,34.3765
1108,2021/1/6,18:27,35-23.63N,140-44.19E,36,16.867,34.3861
1109,2021/1/6,18:28,35-23.88N,140-44.41E,33,16.858,34.3825
1110,2021/1/6,18:29,35-24.12N,140-44.61E,33,16.782,34.3806
1111,2021/1/6,18:30,35-24.37N,140-44.82E,34,16.762,34.373
1112,2021/1/6,18:31,35-24.63N,140-45.04E,34,16.772,34.3764
1113,2021/1/6,18:32,35-24.91N,140-45.28E,35,16.781,34.3763
1114,2021/1/6,18:33,35-25.17N,140-45.49E,34,16.782,34.374
1115,2021/1/6,18:34,35-25.40N,140-45.69E,35,16.786,34.378
1116,2021/1/6,18:35,35-25.63N,140-45.89E,35,16.797,34.379
1117,2021/1/6,18:36,35-25.88N,140-46.10E,35,16.805,34.3759
1118,2021/1/6,18:37,35-26.13N,140-46.32E,34,16.819,34.3817
1119,2021/1/6,18:38,35-26.38N,140-46.53E,35,16.837,34.3793
1120,2021/1/6,18:39,35-26.66N,140-46.77E,34,16.851,34.3763
1121,2021/1/6,18:40,35-26.92N,140-46.99E,34,16.869,34.3828
1122,2021/1/6,18:41,35-27.17N,140-47.20E,34,16.882,34.3835
1123,2021/1/6,18:42,35-27.42N,140-47.41E,34,16.871,34.3845
1124,2021/1/6,18:43,35-27.67N,140-47.62E,34,16.859,34.3788
1125,2021/1/6,18:44,35-27.93N,140-47.83E,32,16.847,34.3881
1126,2021/1/6,18:45,35-28.19N,140-48.04E,33,16.839,34.3857
1127,2021/1/6,18:46,35-28.44N,140-48.25E,33,16.85,34.3862
1128,2021/1/6,18:47,35-28.69N,140-48.46E,33,16.856,34.3891
1129,2021/1/6,18:48,35-28.94N,140-48.67E,34,16.844,34.3825
1130,2021/1/6,18:49,35-29.19N,140-48.88E,34,16.831,34.3899
1131,2021/1/6,18:50,35-29.45N,140-49.10E,34,16.828,34.391
1132,2021/1/6,18:51,35-29.70N,140-49.30E,34,16.829,34.3941
1133,2021/1/6,18:52,35-29.96N,140-49.51E,34,16.836,34.3851
1134,2021/1/6,18:53,35-30.22N,140-49.72E,34,16.846,34.3926
1135,2021/1/6,18:54,35-30.43N,140-49.91E,34,16.848,34.3886
1136,2021/1/6,18:55,35-30.69N,140-50.12E,34,16.841,34.3909
1137,2021/1/6,18:56,35-30.94N,140-50.34E,34,16.833,34.3929
1138,2021/1/6,18:57,35-31.20N,140-50.56E,34,16.797,34.3915
1139,2021/1/6,18:58,35-31.49N,140-50.81E,35,16.769,34.3908
1140,2021/1/6,18:59,35-31.75N,140-51.03E,35,16.787,34.3852
1141,2021/1/6,19:00,35-32.01N,140-51.25E,34,16.79,34.3844
1142,2021/1/6,19:01,35-32.26N,140-51.47E,35,16.731,34.3845
1143,2021/1/6,19:02,35-32.49N,140-51.68E,34,16.675,34.3789
1144,2021/1/6,19:03,35-32.74N,140-51.89E,34,16.635,34.3859
1145,2021/1/6,19:04,35-32.99N,140-52.09E,33,15.706,34.3818